www.pogodaiklimat.ru
ПОГОДА в Шеридане
Время
и дата
04:53 29.01
05:53 29.01
06:04 29.01
06:33 29.01
06:51 29.01
06:53 29.01
07:01 29.01
07:53 29.01
08:53 29.01
09:53 29.01
10:53 29.01
11:31 29.01
11:53 29.01
12:14 29.01
12:53 29.01
13:53 29.01
14:53 29.01
15:53 29.01
16:53 29.01
17:53 29.01
18:53 29.01
19:53 29.01
20:53 29.01
21:53 29.01
22:53 29.01
23:53 29.01
00:53 30.01
01:53 30.01
02:53 30.01
03:53 30.01
04:53 30.01
05:53 30.01
06:53 30.01
07:53 30.01
08:24 30.01
08:33 30.01
08:53 30.01
09:53 30.01
10:53 30.01
11:53 30.01
12:53 30.01
13:53 30.01
14:53 30.01
15:53 30.01
16:53 30.01
17:53 30.01
18:53 30.01
19:53 30.01
Ветер
(напр.,м/с)
Видим. Явления Облачность Т
(С)
Тd
(С)
f
(%)
Тe
(С)
Тes
(С)
Комфортность P
(гПа)
Po
(гПа)
Тmin
(С)
Tmax
(С)
R
(мм)
R24
(мм)
S
(см)
Ю 2 11 км 10/8 1080 m
[Ac]
-22.2 -26.1 70 -28 -28 1034.0 885.0 -24.4 -18.3 26.2 67.3
штиль 0 4 км слабый снег 10/10 840 m
[Ns]
-21.1 -25.0 71 -21 -21 1034.2 885.2
штиль 0 5 км слабый снег 10/10 840 m
[Ns]
-22.2 -25.6 74 -22 -22 885.5
штиль 0 4 км слабый снег 10/10 780 m
[Ns]
-21.7 -26.1 67 -22 -22 885.5
З 3 4 км мгла 10/5 660 m
[Ac]
-21.0 -24.0 77 -29 -29 885.5
З 3 4 км мгла 10/5 600 m
[Ac]
-20.0 -24.4 68 -28 -28 1034.3 885.5
З 4 10 км мгла 10/2 480 m
[Ac]
-20.6 -24.4 71 -30 -30 885.5
З 4 11 км 10/0 2550 m
[Ac]
-19.4 -23.9 67 -28 -28 1034.7 886.1 49.3
СЗ 3 13 км 10/0 2550 m
[Ac]
-19.4 -23.3 71 -27 -27 1035.1 886.1
З 3 10 км мгла 10/10 1500 м -18.9 -23.3 68 -26 -26 1035.3 886.4
СЗ 2 11 км 10/10 1230 м -17.8 -22.8 65 -23 -23 1035.6 886.7 -22.2 -17.8 49.3
СЗ 5 11 км 10/10 690 м -18.9 -23.3 68 -29 -29 886.7
СЗ 7 16 км 10/10 660 м -18.9 -25.0 59 -30 -30 1036.0 886.7
СЗ 7 16 км неопределенные осадки 8/8 900 m
[Cb]
-18.9 -24.4 62 -30 -30 886.4
СЗ 8 16 км 8/2 1230 m
[Ac]
-19.4 -25.0 61 -32 -31 опасность
обморожения
1035.2 885.8
СЗ 5 16 км 10/0 2850 m
[Ac]
-18.3 -23.9 61 -28 -27 1034.8 885.5 18.8
З 3 16 км ясно -18.3 -23.9 61 -26 -23 1034.6 885.5
З 3 16 км ясно -20.0 -25.6 61 -28 -26 1035.7 885.8
СЗ 5 16 км ясно -22.2 -27.2 64 -33 -33 опасность
обморожения
1036.1 885.8 -22.2 -17.8
З 4 16 км ясно -24.4 -28.9 66 -34 -34 опасность
обморожения
1036.4 885.8
штиль 0 16 км ясно -26.1 -31.1 63 -26 -26 1036.3 885.8
штиль 0 16 км ясно -27.8 -31.7 69 -28 -28 1036.3 885.5
ЮЗ 3 16 км ясно -29.4 -32.8 72 -39 -39 опасность
обморожения
1036.4 885.2
ЮВ 2 16 км ясно -28.3 -33.3 62 -36 -36 опасность
обморожения
1035.8 885.2
Ю 3 16 км ясно -30.0 -34.4 65 -40 -40 опасность
обморожения
1035.6 884.7 -31.7 -22.2
Ю 3 16 км ясно -30.0 -34.4 65 -40 -40 опасность
обморожения
1034.9 884.1
штиль 0 16 км ясно -29.4 -33.9 65 -29 -29 1034.1 883.2
штиль 0 16 км ясно -30.0 -33.9 69 -30 -30 1033.2 882.6
Ю 3 16 км ясно -29.4 -35.0 58 -39 -39 опасность
обморожения
1032.7 882.3
СЗ 2 16 км ясно -30.0 -35.6 58 -37 -37 опасность
обморожения
1032.6 882.0
штиль 0 16 км ясно -29.4 -34.4 62 -29 -29 1032.7 881.7 -32.8 -26.7
штиль 0 16 км ясно -30.0 -34.4 65 -30 -30 1033.3 881.7
штиль 0 16 км ясно -30.0 -35.0 62 -30 -30 1033.2 881.4
СВ 2 16 км ясно -30.0 -33.3 73 -37 -37 опасность
обморожения
1034.0 881.7
штиль 0 3 км мгла ясно -30.0 -33.9 69 -30 -30 881.7
ЮЗ 2 5 км мгла ясно -30.6 -33.9 73 -38 -38 опасность
обморожения
881.7
ЮЗ 2 16 км ясно -28.3 -32.2 69 -36 -35 опасность
обморожения
1033.9 881.7
ЮЗ 2 16 км ясно -25.0 -27.2 82 -32 -30 опасность
обморожения
1033.9 882.6
Ю 2 16 км ясно -23.3 -27.8 66 -30 -27 1033.9 882.6 -31.7 -23.3
штиль 0 16 км ясно -16.1 -24.4 49 -16 -11 1031.7 882.0
Ю 2 16 км ясно -16.7 -22.8 59 -22 -17 1030.5 880.9
штиль 0 16 км ясно -11.1 -20.6 45 -11 -5 1029.0 880.6
штиль 0 16 км ясно -11.7 -20.0 50 -12 -7 1029.4 880.9
СЗ 2 16 км 10/0 2100 m
[Ac]
-12.8 -21.1 50 -17 -17 1030.2 881.1
Ю 3 16 км 10/0 2100 m
[Ac]
-13.3 -20.0 57 -20 -19 1030.3 881.4 -23.3 -10.6
ЮЗ 2 16 км ясно -19.4 -25.0 61 -25 -25 1031.7 881.4
Ю 3 16 км ясно -19.4 -25.0 61 -27 -27 1031.6 881.1
Ю 2 16 км ясно -18.9 -25.0 59 -25 -25 1031.0 880.9
Местоположение метеостанции Sheridan County Airport: широта 44.7603 долгота -106.9741 высота над уровнем моря 1210 м.
В архиве по умолчанию представлена погода в Шеридане за последние 1-2 суток. Обновление информации о фактической погоде в базе происходит ежечасно! Архивные данные за месяц целиком и за предыдущие месяцы Вы можете получить, выбрав интересующий диапазон дат из раскрывающегося списка и нажав кнопку "Ввод!".
Внимание! Архив погоды МЕТАР в базе сайта по станциям, не включенным в климатический монитор, хранится не более 60 дней. Нет смысла пытаться выбрать более раннюю дату.
*Определитесь, кто Вы:
Внимание! Время в таблицах - местное (без учета летнего времени). Для получения всемирного времени необходимо вычесть поправку, которая равна -7 ч.
Смотрите также архив погоды в соседних городах и на ближайших метеорологических станциях:
Партнеры нашего сайта:      
Пояснения к столбцам:
  • Ветер - указаны скорость ветра в м/с - средняя за 10 мин, порывы в срок и между сроками (в фигурных скобках) и направление, откуда дует ветер: С - северный,
  • СВ - северо-восточный, В - восточный, ЮВ - юго-восточный, Ю - южный, ЮЗ - юго-западный, З - западный, СЗ - северо-западный.
  • Видимость - горизонтальная дальность видимости в метрах или километрах. При видимости от 1 до 10 км при отсутствии осадков обычно наблюдается дымка, при ухудшении видимости до 1 км и менее - туман. В сухую погоду видимость может ухудшаться дымом, пылью или мглою.
  • Явления - указаны атмосферные явления, наблюдавшиеся в срок или в последний час перед сроком; фигурными скобками обозначены явления, наблюдавшиеся между сроками (за 1-3 часа до срока); квадратными скобками обозначены град или гололедные отложения с указанием их диаметра в мм.
  • Облачность - указаны через наклонную черту общая и нижняя облачность в баллах и высота нижней границы облаков в метрах; квадратными скобками обозначены формы облаков: Ci - перистые, Cs - перисто-слоистые, Cc - перисто-кучевые, Ac - высококучевые, As - высокослоистые, Sc - слоисто-кучевые, Ns - слоисто-дождевые, Cu - кучевые, Cb - кучево-дождевые. Подробнее классификацию облаков см. в Атласе облаков (PDF).
  • T - Температура воздуха - температура, измеренная на высоте 2 м над землей.
  • Td - Температура точки росы - температура, при понижении до которой содержащийся в воздухе водяной пар достигнет насыщения.
  • f - Относительная влажность воздуха - влажноcть воздуха, измеренная на высоте 2 м над землей.
  • Te - Эффективная температура - температура, которую ощущает одетый по сезону человек в тени. Характеристика душности погоды. При расчете учитывается влияние влажности воздуха и скорости ветра на теплоощущения человека.
  • Tes - Эффективная температура на солнце - температура, которую ощущает человек, с поправкой на солнечный нагрев. Характеристика знойности погоды. Зависит от высоты солнца над горизонтом, облачности и скорости ветра. Ночью, в пасмурную погоду, а также при ветре 12 м/с и более поправка равна нулю.
  • P - Атмосферное давление - приведенное к уровню моря атмосферное давление.
  • Po - Атмосферное давление - измеренное на уровне метеостанции атмосферное давление.
  • Tmin - Минимальная температура - минимум температуры воздуха на высоте 2 м над землей.
  • Tmax - Максимальная температура - максимум температуры воздуха на высоте 2 м над землей.
  • R - Количество осадков - Количество выпавших осадков за период времени, мм. При наведении курсора мыши на число - период времени, за который выпало указанное количество осадков.
  • R24 - Количество осадков - Количество выпавших осадков за 24 часа, мм.
  • S - Снежный покров - Высота снежного покрова, см. При наведении курсора мыши на число - состояние снежного покрова и степень покрытия местности в баллах.